User: anonymous   Login
Location: C�an Torras
(41.5052°N, 1.9280°E)
Time: 15:57:18
(UTC+00:00)
Language:

SJ-11-01 - Orbit

View from above orbital plane
View from above orbital plane
View from above satellite
View from above satellite

Ground track
Ground track

The orbit data is extracted from the following two-line orbital elements,

1 36088U 09061A   21108.49005533  .00000017  00000-0  12720-4 0  9996
2 36088  97.9602 136.0146 0011168 192.0888 168.0047 14.60211659609123
Epoch (UTC): 18 April 2021 11:45:40
Eccentricity: 0.0011168
inclination: 97.9602°
perigee height: 684 km
apogee height: 700 km
right ascension of ascending node: 136.0146°
argument of perigee: 192.0888°
revolutions per day: 14.60211659
mean anomaly at epoch: 168.0047°
orbit number at epoch: 60912

The dashed part of the orbit path shows where the satellite is in the earth's shadow,  

DLR